This demonstration page uses our WeatherBlox Daily Observations layout. Learn more.

Left ArrowRight Arrow

39.92423, -83.80882

Hourly Observations for June 18, 2018

Temp ( °F °C ) Dew Point ( °F °C ) Humidity (%) Winds ( mph kmh ) Pressure ( in mb ) Visibility ( mi km ) Precip ( " mm )
12:56 am 00:56 Clear 77 25 72 22.2 85 85 SW 5 7 30.07 1018 10 16.0934 N/A
1:56 am 01:56 Clear 76 24.4 72 22.2 88 88 SSW 3 6 30.07 1018 10 16.0934 N/A
2:56 am 02:56 Clear 75 23.9 71 21.7 88 88 SSW 5 7 30.06 1018 10 16.0934 N/A
3:56 am 03:56 Clear 74 23.3 71 21.7 91 91 SSW 5 7 30.06 1018 10 16.0934 N/A
4:56 am 04:56 Clear 73 22.8 71 21.7 94 94 SSW 3 6 30.06 1018 8 12.87472 N/A
5:56 am 05:56 Clear 73 22.8 70 21.1 90 90 SW 6 9 30.06 1018 8 12.87472 N/A
6:56 am 06:56 Partly Cloudy with Mist and Fog 73 22.8 71 21.7 94 94 SW 6 9 30.07 1018 6 9.65604 N/A
7:56 am 07:56 Sunny 77 25 73 22.8 88 88 WSW 7 11 30.07 1018 9 14.48406 N/A
8:56 am 08:56 Sunny 81 27.2 73 22.8 77 77 WSW 9 15 30.08 1019 10 16.0934 N/A
9:56 am 09:56 Sunny 85 29.4 74 23.3 70 70 WSW 9 15 30.07 1018 10 16.0934 N/A
10:56 am 10:56 Sunny 87 30.6 74 23.3 65 65 WSW 15 24 30.07 1018 10 16.0934 N/A
11:56 am 11:56 Sunny 88 31.1 74 23.3 63 63 W 12 19 30.07 1018 10 16.0934 N/A
12:56 pm 12:56 Sunny 90 32.2 74 23.3 59 59 WNW 10 17 30.06 1018 10 16.0934 N/A
1:56 pm 13:56 Sunny 91 32.8 73 22.8 56 56 WSW 14 22 30.04 1017 10 16.0934 N/A
2:56 pm 14:56 Sunny 91 32.8 73 22.8 56 56 WSW 13 20 30.02 1017 10 16.0934 N/A
3:56 pm 15:56 Sunny 92 33.3 73 22.8 54 54 W 15 24 30 1016 10 16.0934 N/A
4:56 pm 16:56 Sunny 92 33.3 72 22.2 52 52 SW 16 26 29.97 1015 10 16.0934 N/A
5:56 pm 17:56 Sunny 91 32.8 70 21.1 50 50 WSW 16 26 29.96 1014 10 16.0934 N/A
6:56 pm 18:56 Sunny 89 31.7 71 21.7 55 55 WSW 15 24 29.94 1014 10 16.0934 N/A
7:56 pm 19:56 Sunny 87 30.6 71 21.7 59 59 WSW 10 17 29.95 1014 10 16.0934 N/A
8:56 pm 20:56 Sunny 85 29.4 71 21.7 63 63 W 10 17 29.96 1015 10 16.0934 N/A
9:56 pm 21:56 Clear 82 27.8 71 21.7 69 69 WSW 8 13 29.96 1015 10 16.0934 N/A
10:56 pm 22:56 Clear 80 26.7 72 22.2 76 76 WSW 7 11 29.98 1015 10 16.0934 N/A
11:56 pm 23:56 Clear 79 26.1 72 22.2 79 79 WSW 9 15 29.98 1015 10 16.0934 N/A

Powered by AerisWeather